This demonstration page uses our WeatherBlox Daily Observations layout. Learn more.

Left ArrowRight Arrow

34.02893, -84.19858

Hourly Observations for May 14, 2015

Temp ( °F °C ) Dew Point ( °F °C ) Humidity (%) Winds ( mph kmh ) Pressure ( in mb ) Visibility ( mi km ) Precip ( " mm )
12:53 am 00:53 Clear 62 16.7 52 11.1 70 70 Calm 30.17 1022 9 14 0.00 0.00
1:53 am 01:53 Clear 60 15.6 52 11.1 75 75 Calm 30.17 1022 9 14 0.00 0.00
2:53 am 02:53 Clear 59 15 53 11.7 81 81 Calm 30.16 1021 9 14 0.00 0.00
3:53 am 03:53 Clear 59 15 52 11.1 78 78 Calm 30.17 1022 9 14 0.00 0.00
4:53 am 04:53 Clear 62 16.7 53 11.7 73 73 Calm 30.18 1022 9 14 0.00 0.00
5:53 am 05:53 Clear 64 17.8 51 10.6 63 63 ENE 7 11 30.18 1022 10 16 0.00 0.00
6:53 am 06:53 Sunny 64 17.8 50 10 60 60 ENE 6 9 30.20 1023 9 14 0.00 0.00
7:53 am 07:53 Sunny 65 18.3 50 10 59 59 E 7 11 30.23 1024 8 13 0.00 0.00
8:53 am 08:53 Sunny 67 19.4 50 10 55 55 VRB 3 6 30.26 1025 8 13 0.00 0.00
9:53 am 09:53 Sunny 68 20 51 10.6 55 55 ENE 9 15 30.28 1025 8 13 0.00 0.00
10:53 am 10:53 Mostly Sunny 71 21.7 53 11.7 53 53 E 7 11 30.28 1025 8 13 0.00 0.00
11:53 am 11:53 Mostly Sunny 75 23.9 56 13.3 52 52 VRB 7 11 30.27 1025 8 13 0.00 0.00
12:53 pm 12:53 Partly Cloudy 78 25.6 57 13.9 48 48 VRB 5 7 30.26 1025 8 13 0.00 0.00
1:53 pm 13:53 Partly Cloudy 80 26.7 57 13.9 45 45 VRB 5 7 30.24 1024 8 13 0.00 0.00
2:02 pm 14:02 Mostly Sunny 81 27 57 14 45 45 SSE 8 13 30.21 1023 8 13 0.00 0.00
2:03 pm 14:03 Mostly Sunny 81 27 57 14 45 45 SSE 6 9 30.21 1023 8 13 0.00 0.00
2:53 pm 14:53 Mostly Sunny 82 27.8 58 14.4 44 44 VRB 7 11 30.22 1023 8 13 0.00 0.00
3:53 pm 15:53 Mostly Sunny 81 27.2 58 14.4 45 45 VRB 5 7 30.21 1023 8 13 0.00 0.00
4:53 pm 16:53 Partly Cloudy 80 26.7 59 15 49 49 ESE 8 13 30.18 1022 8 13 0.00 0.00
5:53 pm 17:53 Sunny 80 26.7 60 15.6 51 51 VRB 5 7 30.16 1022 7 11 0.00 0.00
6:53 pm 18:53 Sunny 79 26.1 60 15.6 52 52 ESE 6 9 30.17 1022 7 11 0.00 0.00
7:53 pm 19:53 Sunny 77 25 60 15.6 56 56 VRB 5 7 30.17 1022 7 11 0.00 0.00
8:53 pm 20:53 Mostly Clear 76 24.4 60 15.6 58 58 ESE 5 7 30.19 1022 8 13 0.00 0.00
9:53 pm 21:53 Mostly Cloudy 75 23.9 60 15.6 60 60 undefined N/A 30.20 1023 8 13 0.00 0.00
10:53 pm 22:53 Cloudy 74 23.3 60 15.6 62 62 VRB 6 9 30.21 1023 8 13 0.00 0.00
11:53 pm 23:53 Mostly Cloudy 73 22.8 59 15 62 62 VRB 3 6 30.21 1023 8 13 0.00 0.00

Powered by AerisWeather